Location: Macksville High School
(37.9611°N, 99.9654°W)
Time: 23:56:24
(UTC+00:00)

Cosmos 1602 Rocket - Pass Details

Date: 17 January 2021
Orbit: 604 x 633 km, 82.5° (Epoch: 07 March)

Event Time Altitude Azimuth Distance (km) Brightness Sun altitude
Rises 13:08:31 0° 354° (N) 2,913 6.8 -9.1°
Reaches altitude 10° 13:10:45 10° 355° (N) 2,006 5.9 -8.6°
Maximum altitude 13:15:12 80° 82° (E) 644 3.8 -7.8°
Drops below altitude 10° 13:19:40 10° 170° (S) 2,004 6.6 -7.0°
Sets 13:21:53 0° 172° (S) 2,909 7.4 -6.6°
